Total_Precipitation_Accumulation
0.05 0.08 0.13 0.13 0.10 0.09 0.08 0.08 0.10 0.14 0.23 0.34 0.44 0.50 0.57 0.59 0.59 0.61 0.57 0.60 0.72 0.84 0.98 0.97 0.91 0.85 0.90 1.13 1.34 1.56 1.84 1.93 1.95 2.02 2.13 2.27 2.40 2.42 2.40 2.39 2.35 2.52 2.51 2.44
0.06 0.08 0.09 0.08 0.08 0.08 0.07 0.07 0.09 0.14 0.24 0.36 0.49 0.55 0.51 0.53 0.51 0.56 0.65 0.72 0.87 0.99 1.09 1.19 1.23 1.23 1.28 1.43 1.70 2.00 2.31 2.42 2.53 2.59 2.65 2.71 2.74 2.77 2.82 2.77 2.72 2.65 2.55 2.59
0.13 0.12 0.12 0.10 0.10 0.10 0.10 0.11 0.13 0.19 0.28 0.43 0.58 0.55 0.61 0.64 0.62 0.71 0.78 0.87 0.98 1.08 1.15 1.28 1.33 1.41 1.59 1.78 2.03 2.27 2.45 2.55 2.67 2.77 2.89 2.99 3.02 3.03 2.91 2.85 2.79 2.67 2.66 2.71
0.19 0.23 0.25 0.15 0.16 0.19 0.22 0.25 0.28 0.31 0.38 0.47 0.59 0.61 0.65 0.69 0.68 0.71 0.83 1.00 1.04 1.11 1.21 1.28 1.41 1.58 1.74 1.85 2.03 2.35 2.56 2.64 2.67 2.72 2.82 2.97 3.13 3.08 2.94 2.91 2.86 2.81 2.75 2.62
0.32 0.29 0.31 0.30 0.27 0.29 0.39 0.47 0.44 0.60 0.67 0.62 0.65 0.71 0.74 0.74 0.89 0.91 0.90 0.99 1.06 1.17 1.27 1.38 1.44 1.50 1.53 1.63 1.82 2.04 2.27 2.44 2.45 2.57 2.76 2.87 2.91 2.94 3.01 2.99 2.79 2.65 2.53 2.47
0.47 0.49 0.46 0.45 0.47 0.38 0.44 0.77 0.77 0.86 0.95 0.89 0.92 1.10 1.03 0.79 0.79 0.86 0.93 1.00 1.12 1.27 1.36 1.36 1.36 1.37 1.46 1.61 1.83 2.03 2.25 2.44 2.61 2.74 2.88 2.92 2.97 3.08 3.10 3.04 3.00 2.97 2.82 2.71
0.54 0.59 0.58 0.51 0.47 0.49 0.82 1.09 1.07 1.15 1.18 1.11 1.15 1.19 1.10 0.94 0.88 0.87 0.94 1.01 1.11 1.26 1.41 1.44 1.42 1.56 1.68 1.82 1.98 2.16 2.28 2.37 2.51 2.69 2.91 3.16 3.32 3.24 3.21 3.16 3.06 2.87 2.69 2.54
0.76 0.95 1.06 0.78 0.71 0.93 1.11 0.88 0.94 1.12 1.33 1.35 1.29 1.21 1.12 1.04 0.97 0.90 0.87 0.95 1.13 1.25 1.37 1.52 1.62 1.78 1.92 1.94 2.01 2.19 2.38 2.46 2.52 2.70 2.78 2.93 3.17 3.19 3.10 3.07 2.98 2.85 2.77 2.67
1.08 1.26 1.14 0.97 0.98 0.93 1.01 1.18 1.25 1.35 1.55 1.57 1.41 1.27 1.27 1.20 1.08 1.00 0.98 1.04 1.15 1.27 1.39 1.48 1.67 1.86 2.02 2.11 2.18 2.27 2.38 2.52 2.69 2.76 2.80 2.90 3.06 3.12 3.08 2.98 2.85 2.71 2.57 2.36
1.29 1.43 1.27 1.11 1.08 1.04 1.11 1.30 1.39 1.37 1.40 1.43 1.40 1.33 1.44 1.44 1.28 1.24 1.26 1.25 1.29 1.37 1.45 1.52 1.61 1.80 2.01 2.13 2.17 2.29 2.35 2.40 2.55 2.68 2.80 2.94 2.95 2.83 2.69 2.53 2.46 2.40 2.26 2.14
1.57 1.76 1.68 1.49 1.36 1.27 1.30 1.27 1.35 1.29 1.32 1.32 1.36 1.35 1.41 1.53 1.56 1.49 1.37 1.32 1.37 1.45 1.54 1.57 1.61 1.69 1.92 2.13 2.21 2.24 2.34 2.39 2.38 2.40 2.48 2.63 2.70 2.64 2.49 2.32 2.19 2.11 2.00 1.98
1.95 1.93 2.03 1.90 1.59 1.41 1.47 1.44 1.39 1.35 1.42 1.47 1.44 1.39 1.42 1.55 1.60 1.57 1.47 1.42 1.45 1.49 1.51 1.54 1.64 1.74 1.83 2.10 2.36 2.42 2.40 2.27 2.19 2.10 2.10 2.14 2.15 2.19 2.27 2.13 2.11 1.96 1.84 1.77
1.67 1.90 1.95 1.79 1.61 1.66 1.65 1.63 1.60 1.61 1.60 1.59 1.65 1.62 1.54 1.54 1.56 1.53 1.52 1.51 1.49 1.53 1.57 1.62 1.74 1.79 1.77 1.88 2.16 2.35 2.29 2.16 2.06 1.98 1.96 1.90 1.88 1.89 1.98 2.01 1.94 1.83 1.80 1.67
1.48 1.69 1.90 1.76 1.72 1.71 1.68 1.75 1.78 1.82 1.82 1.74 1.75 1.76 1.70 1.65 1.58 1.55 1.58 1.45 1.34 1.35 1.45 1.54 1.60 1.71 1.79 1.84 1.97 2.07 2.12 2.17 2.04 1.92 1.95 1.96 1.94 1.92 1.92 1.94 1.91 1.80 1.78 1.74
1.46 1.50 1.61 1.57 1.57 1.64 1.60 1.63 1.77 1.87 1.94 1.91 1.86 1.79 1.67 1.67 1.65 1.55 1.42 1.30 1.30 1.34 1.33 1.37 1.44 1.49 1.55 1.69 1.83 1.90 1.92 1.97 2.02 2.03 2.00 2.02 2.04 1.94 1.84 1.80 1.81 1.71 1.64 1.70
1.45 1.34 1.37 1.57 1.65 1.67 1.73 1.77 1.78 1.74 1.69 1.69 1.68 1.67 1.66 1.62 1.54 1.44 1.33 1.32 1.40 1.45 1.43 1.39 1.40 1.41 1.39 1.47 1.69 1.81 1.81 1.96 1.91 1.96 1.97 1.93 1.98 1.99 1.96 1.95 1.90 1.79 1.68 1.66
1.51 1.41 1.44 1.56 1.61 1.68 1.77 1.70 1.63 1.56 1.53 1.50 1.51 1.49 1.50 1.59 1.57 1.55 1.51 1.44 1.42 1.50 1.51 1.52 1.51 1.45 1.43 1.50 1.61 1.72 1.65 1.71 1.80 1.66 1.70 1.80 1.80 1.83 1.88 1.92 1.90 1.79 1.65 1.62
1.47 1.36 1.45 1.57 1.56 1.61 1.53 1.46 1.40 1.30 1.31 1.40 1.50 1.54 1.51 1.54 1.54 1.60 1.61 1.48 1.37 1.39 1.42 1.46 1.45 1.42 1.42 1.50 1.57 1.69 1.65 1.55 1.55 1.56 1.70 1.78 1.84 1.85 1.88 1.85 1.81 1.77 1.72 1.73
1.40 1.37 1.38 1.38 1.39 1.48 1.37 1.34 1.32 1.32 1.28 1.34 1.46 1.53 1.56 1.56 1.52 1.45 1.48 1.57 1.60 1.56 1.43 1.33 1.38 1.30 1.35 1.50 1.55 1.63 1.68 1.64 1.59 1.57 1.69 1.83 1.86 1.88 1.91 1.88 1.85 1.82 1.78 1.76
1.51 1.53 1.47 1.37 1.37 1.46 1.44 1.36 1.27 1.28 1.26 1.30 1.45 1.55 1.57 1.51 1.45 1.45 1.57 1.64 1.66 1.50 1.28 1.24 1.17 1.19 1.21 1.30 1.39 1.39 1.52 1.60 1.62 1.60 1.64 1.67 1.70 1.72 1.71 1.69 1.71 1.72 1.75 1.82
1.74 1.61 1.51 1.45 1.35 1.30 1.37 1.39 1.38 1.35 1.27 1.30 1.44 1.48 1.51 1.44 1.34 1.40 1.58 1.60 1.49 1.29 1.13 1.21 1.20 1.20 1.11 1.17 1.23 1.23 1.36 1.52 1.59 1.57 1.55 1.57 1.55 1.48 1.47 1.54 1.65 1.76 1.82 1.84
1.72 1.53 1.38 1.29 1.32 1.38 1.35 1.35 1.38 1.43 1.49 1.56 1.54 1.48 1.48 1.47 1.38 1.41 1.43 1.47 1.32 1.27 1.07 1.05 1.11 1.18 1.14 1.05 1.02 1.21 1.36 1.48 1.53 1.53 1.53 1.56 1.59 1.55 1.48 1.52 1.61 1.65 1.71 1.71
1.60 1.44 1.40 1.37 1.38 1.45 1.41 1.39 1.41 1.44 1.51 1.62 1.68 1.65 1.61 1.53 1.44 1.45 1.48 1.33 1.18 1.15 1.07 1.09 1.12 1.10 1.07 1.00 1.04 1.14 1.20 1.27 1.31 1.33 1.36 1.45 1.56 1.61 1.57 1.49 1.43 1.45 1.53 1.56
1.67 1.55 1.51 1.41 1.38 1.47 1.58 1.57 1.51 1.46 1.40 1.45 1.50 1.53 1.55 1.53 1.50 1.41 1.49 1.51 1.32 1.12 1.06 1.14 1.08 0.99 1.02 1.04 1.14 1.20 1.22 1.24 1.26 1.30 1.36 1.46 1.60 1.67 1.61 1.50 1.36 1.30 1.38 1.52
1.72 1.63 1.59 1.55 1.51 1.49 1.50 1.50 1.46 1.39 1.29 1.33 1.28 1.30 1.38 1.47 1.57 1.58 1.57 1.50 1.42 1.29 1.13 1.09 1.06 1.01 0.97 1.06 1.16 1.22 1.23 1.22 1.25 1.32 1.36 1.40 1.44 1.48 1.53 1.50 1.39 1.30 1.27 1.34
1.79 1.64 1.53 1.53 1.53 1.46 1.39 1.42 1.54 1.54 1.50 1.49 1.39 1.29 1.30 1.41 1.52 1.57 1.57 1.46 1.27 1.18 1.10 1.06 1.02 1.01 0.95 1.02 1.09 1.17 1.21 1.23 1.23 1.21 1.17 1.17 1.16 1.14 1.15 1.19 1.21 1.22 1.23 1.19
1.63 1.55 1.49 1.42 1.33 1.23 1.29 1.37 1.46 1.56 1.59 1.54 1.44 1.28 1.27 1.38 1.49 1.48 1.38 1.33 1.22 1.10 1.00 0.88 0.83 0.86 0.90 0.92 0.93 0.95 1.02 1.03 1.05 1.15 1.24 1.29 1.13 0.97 0.92 0.96 1.02 1.07 1.09 1.06